SP5IZJ-2 Weather Reports


Display with metric or nautical units.
time (UTC)temp
F
wind
direction
speed
MPH
gust
MPH
rain 1hr
in
rain 24hr
in
rain mn
in
humidity
%
barometer
mb
20260505101157 89 0 1.0 6.0 0.00 0.00 0.00 34 1000.7
20260505100457 88 135 0.0 1.0 0.00 0.00 0.00 34 1000.8
20260505095058 88 225 1.0 5.0 0.00 0.00 0.00 33 1001.0
20260505094358 88 248 0.0 3.0 0.00 0.00 0.00 34 1001.2
20260505093658 86 359 0.0 0.0 0.00 0.00 0.00 36 1001.1
20260505082002 83 225 0.0 3.0 0.00 0.00 0.00 39 1001.9
20260505080600 83 225 0.0 0.0 0.00 0.00 0.00 43 1001.7
20260505075900 80 248 0.0 5.0 0.00 0.00 0.00 43 1001.7
20260505073801 76 225 1.0 4.0 0.00 0.00 0.00 47 1001.8
20260505073101 76 225 0.0 4.0 0.00 0.00 0.00 47 1001.9
20260505072401 76 225 1.0 7.0 0.00 0.00 0.00 48 1002.0
20260505064202 70 225 0.0 1.0 0.00 0.00 0.00 57 1002.6
20260505061403 70 225 1.0 7.0 0.00 0.00 0.00 57 1002.6
20260505060703 69 225 2.0 5.0 0.00 0.00 0.00 56 1002.6
20260505054604 71 225 1.0 6.0 0.00 0.00 0.00 58 1002.4
20260505053204 69 225 0.0 1.0 0.00 0.00 0.00 63 1002.6
20260505051804 63 225 0.0 0.0 0.00 0.00 0.00 72 1002.7
20260505051115 60 225 0.0 0.0 0.00 0.00 0.00 74 1002.7
20260505050405 59 225 0.0 0.0 0.00 0.00 0.00 72 1002.7
20260505040806 55 225 1.0 4.0 0.00 0.00 0.00 81 1002.9
20260505040108 54 225 0.0 5.0 0.00 0.00 0.00 81 1002.9
20260505035406 53 225 1.0 4.0 0.00 0.00 0.00 82 1003.0
20260505034011 51 113 0.0 0.0 0.00 0.00 0.00 82 1003.1
20260505031207 49 359 0.0 0.0 0.00 0.00 0.00 81 1003.0
20260505030519 212 359 0.0 0.0 0.00 0.00 0.00 100
20260505023708 49 359 0.0 0.0 0.00 0.00 0.00 79 1003.2
20260505022309 49 359 0.0 0.0 0.00 0.00 0.00 78 1003.1
20260505021609 49 359 0.0 0.0 0.00 0.00 0.00 78 1003.1
20260505020209 49 113 0.0 0.0 0.00 0.00 0.00 75 1003.4
20260505015509 49 113 0.0 0.0 0.00 0.00 0.00 76 1003.4
20260505014810 49 113 0.0 0.0 0.00 0.00 0.00 75 1003.4
20260505014114 49 113 0.0 0.0 0.00 0.00 0.00 75 1003.4
20260505013410 50 113 0.0 0.0 0.00 0.00 0.00 74 1003.4
20260505011310 50 359 0.0 0.0 0.00 0.00 0.00 74 1003.3
20260505010611 212 359 0.0 0.0 0.00 0.00 0.00 100
20260505005911 51 113 0.0 0.0 0.00 0.00 0.00 73 1003.2
20260505004511 52 113 0.0 0.0 0.00 0.00 0.00 72 1003.0
20260505003811 52 113 0.0 0.0 0.00 0.00 0.00 71 1003.1
20260505003111 52 113 0.0 0.0 0.00 0.00 0.00 72 1003.1
20260505002412 53 113 0.0 0.0 0.00 0.00 0.00 72 1003.1
20260505001012 53 113 0.0 0.0 0.00 0.00 0.00 71 1003.5
20260504235617 53 113 0.0 0.0 0.00 0.00 0.00 70 1003.4
20260504234913 53 113 0.0 0.0 0.00 0.00 0.00 69 1003.5
20260504233513 53 113 0.0 0.0 0.00 0.00 0.00 68 1003.4
20260504230014 54 113 0.0 0.0 0.00 0.00 0.00 67 1003.6
20260504225314 54 113 0.0 0.0 0.00 0.00 0.00 66 1003.8
20260504223914 54 113 0.0 0.0 0.00 0.00 0.00 64 1003.7
20260504221117 55 113 0.0 0.0 0.00 0.00 0.00 61 1003.6
20260504215715 56 113 0.0 0.0 0.00 0.00 0.00 60 1003.5
20260504214316 57 113 0.0 0.0 0.00 0.00 0.00 59 1003.8
20260504213618 57 113 0.0 0.0 0.00 0.00 0.00 59 1003.8
20260504212216 57 113 0.0 0.0 0.00 0.00 0.00 58 1003.7
20260504211523 58 113 0.0 0.0 0.00 0.00 0.00 58 1003.8
20260504203320 62 113 0.0 0.0 0.00 0.00 0.00 53 1003.8
20260504201918 62 113 0.0 0.0 0.00 0.00 0.00 51 1003.5
20260504201218 63 113 0.0 0.0 0.00 0.00 0.00 52 1003.5
20260504200518 63 113 0.0 0.0 0.00 0.00 0.00 51 1003.5
20260504195820 63 113 0.0 0.0 0.00 0.00 0.00 50 1003.4
20260504191619 65 0 0.0 0.0 0.00 0.00 0.00 46 1003.1
20260504181321 69 338 0.0 2.0 0.00 0.00 0.00 41 1002.8
20260504180623 71 338 1.0 3.0 0.00 0.00 0.00 40 1002.8
20260504171725 79 23 0.0 1.0 0.00 0.00 0.00 34 1002.5